Date String (YYYY-MM-DD hh:mm:ss) UTC,Instrument flags,absolute air pressure of the measurement (hPa),sample flow rate (lpm),inlet stack bypass flow (lpm),air temperature of the measurement (°C),ambient temperature measured by the external sensor (°C),aerosol sample conditioner tube jacket temperature (°C),OPC LED temperature (°C),internal box temperature (°C),relative humidity of the measurement (%),span deviation,mass concentration of particles derived from Lorenz-Mie calculation of OPC scattering (μg/m³),mass concentration of particles derived from Lorenz-Mie calculation of OPC scattering (μg/m³),mass concentration of particles derived from Lorenz-Mie calculation of OPC scattering (μg/m³)
DateTimeUTC,F1_M11,P_M11,Q1_M11,Q2_M11,T1_M11,T2_M11,T3_M11,T4_M11,T5_M11,U1_M11,ZSPAN_M11,X0_M11,X2_M11,X1_M11
2024-06-02 11:00:00,SystemResetWarning,0825.8,5.01,000.00,029.9,029.0,000.0,038.4,031.6,019.4,0000.0,0010.57,0004.22,0003.48
2024-06-02 11:01:00,SystemResetWarning,0825.8,5.00,000.00,029.9,029.0,000.0,038.4,031.6,019.3,0000.0,0010.75,0004.24,0003.47
2024-06-02 11:02:00,SystemResetWarning,0825.8,4.99,000.00,029.9,029.0,000.0,038.4,031.6,019.4,0000.0,0010.76,0004.25,0003.48
2024-06-02 11:03:00,SystemResetWarning,0825.8,5.00,000.00,029.9,029.1,000.0,038.4,031.6,019.4,0000.0,0010.52,0004.24,0003.49
2024-06-02 11:04:00,SystemResetWarning,0825.8,4.99,000.00,029.9,029.1,000.0,038.4,031.6,019.4,0000.0,0010.75,0004.24,0003.50
2024-06-02 11:05:00,SystemResetWarning,0825.7,5.01,000.00,029.9,029.0,000.0,038.4,031.6,019.1,0000.0,0011.61,0004.22,0003.51
2024-06-02 11:06:00,SystemResetWarning,0825.7,5.00,000.00,029.9,029.0,000.0,038.4,031.6,018.9,0000.0,0012.04,0004.26,0003.52
2024-06-02 11:07:00,SystemResetWarning,0825.6,4.99,000.00,029.9,029.0,000.0,038.4,031.6,019.3,0000.0,0011.48,0004.31,0003.52
2024-06-02 11:08:00,SystemResetWarning,0825.6,4.99,000.00,029.9,029.0,000.0,038.4,031.6,019.2,0000.0,0011.76,0004.33,0003.51
2024-06-02 11:09:00,SystemResetWarning,0825.7,5.00,000.00,029.9,029.0,000.0,038.4,031.6,019.1,0000.0,0011.96,0004.32,0003.50
2024-06-02 11:10:00,SystemResetWarning,0825.7,5.00,000.00,029.9,029.0,000.0,038.4,031.6,019.0,0000.0,0011.87,0004.29,0003.47
2024-06-02 11:11:00,SystemResetWarning,0825.7,4.99,000.00,029.9,029.0,000.0,038.4,031.6,019.2,0000.0,0011.47,0004.24,0003.47
2024-06-02 11:12:00,SystemResetWarning,0825.7,5.00,000.00,029.9,029.0,000.0,038.4,031.6,019.4,0000.0,0011.36,0004.22,0003.46
2024-06-02 11:13:00,SystemResetWarning,0825.7,5.00,000.00,029.9,029.0,000.0,038.4,031.6,019.3,0000.0,0011.64,0004.23,0003.45
2024-06-02 11:14:00,SystemResetWarning,0825.6,5.00,000.00,029.8,029.0,000.0,038.3,031.6,019.1,0000.0,0011.75,0004.30,0003.45
2024-06-02 11:15:00,SystemResetWarning,0825.6,5.00,000.00,029.8,029.0,000.0,038.3,031.6,018.7,0000.0,0011.38,0004.32,0003.44
2024-06-02 11:16:00,SystemResetWarning,0825.6,4.99,000.00,029.8,029.0,000.0,038.3,031.6,018.6,0000.0,0010.60,0004.30,0003.44
2024-06-02 11:17:00,SystemResetWarning,0825.6,5.00,000.00,029.8,029.0,000.0,038.3,031.6,018.6,0000.0,0010.24,0004.26,0003.44
2024-06-02 11:18:00,SystemResetWarning,0825.6,5.00,000.00,029.8,029.0,000.0,038.3,031.6,018.8,0000.0,0009.81,0004.24,0003.44
2024-06-02 11:19:00,SystemResetWarning,0825.6,5.00,000.00,029.8,029.0,000.0,038.3,031.6,019.0,0000.0,0009.62,0004.23,0003.43
2024-06-02 11:20:00,SystemResetWarning,0825.5,5.00,000.00,029.8,029.0,000.0,038.3,031.6,019.2,0000.0,0009.90,0004.24,0003.42
2024-06-02 11:21:00,SystemResetWarning,0825.5,5.01,000.00,029.8,029.0,000.0,038.3,031.6,019.2,0000.0,0009.69,0004.21,0003.42
2024-06-02 11:22:00,SystemResetWarning,0825.4,5.01,000.00,029.8,029.0,000.0,038.3,031.6,019.4,0000.0,0010.52,0004.24,0003.42
2024-06-02 11:23:00,SystemResetWarning,0825.4,5.01,000.00,029.8,029.0,000.0,038.3,031.6,019.2,0000.0,0011.15,0004.23,0003.41
2024-06-02 11:24:00,SystemResetWarning,0825.4,5.00,000.00,029.8,029.0,000.0,038.3,031.6,019.0,0000.0,0010.69,0004.22,0003.41
2024-06-02 11:25:00,SystemResetWarning,0825.4,5.00,000.00,029.8,029.0,000.0,038.3,031.6,018.7,0000.0,0010.47,0004.16,0003.41
2024-06-02 11:26:00,SystemResetWarning,0825.3,4.99,000.00,029.8,029.0,000.0,038.3,031.6,018.2,0000.0,0010.35,0004.14,0003.41
2024-06-02 11:27:00,SystemResetWarning,0825.3,4.99,000.00,029.8,029.0,000.0,038.3,031.6,018.2,0000.0,0010.42,0004.17,0003.43
2024-06-02 11:28:00,SystemResetWarning,0825.3,5.00,000.00,029.8,029.0,000.0,038.3,031.5,018.3,0000.0,0010.33,0004.25,0003.43
2024-06-02 11:29:00,SystemResetWarning,0825.3,5.00,000.00,029.8,029.0,000.0,038.3,031.6,018.4,0000.0,0010.48,0004.28,0003.43
2024-06-02 11:30:00,SystemResetWarning,0825.3,5.00,000.00,029.8,029.0,000.0,038.3,031.6,018.3,0000.0,0010.54,0004.27,0003.44
2024-06-02 11:31:00,SystemResetWarning,0825.2,5.00,000.00,029.8,029.0,000.0,038.3,031.6,018.6,0000.0,0010.38,0004.27,0003.46
2024-06-02 11:32:00,SystemResetWarning,0825.3,4.99,000.00,029.8,029.0,000.0,038.3,031.5,018.8,0000.0,0010.38,0004.30,0003.47
2024-06-02 11:33:00,SystemResetWarning,0825.3,5.00,000.00,029.8,029.0,000.0,038.3,031.6,018.6,0000.0,0009.93,0004.31,0003.47
2024-06-02 11:34:00,SystemResetWarning,0825.3,5.01,000.00,029.8,029.0,000.0,038.3,031.5,018.8,0000.0,0009.60,0004.34,0003.48
2024-06-02 11:35:00,SystemResetWarning,0825.3,5.00,000.00,029.8,029.0,000.0,038.3,031.5,018.8,0000.0,0009.73,0004.34,0003.49
2024-06-02 11:36:00,SystemResetWarning,0825.2,5.00,000.00,029.8,029.0,000.0,038.3,031.5,018.7,0000.0,0009.78,0004.35,0003.48
2024-06-02 11:37:00,SystemResetWarning,0825.2,5.00,000.00,029.8,029.0,000.0,038.3,031.5,018.6,0000.0,0010.34,0004.35,0003.48
2024-06-02 11:38:00,SystemResetWarning,0825.2,5.00,000.00,029.8,029.0,000.0,038.3,031.5,018.9,0000.0,0010.32,0004.30,0003.47
2024-06-02 11:39:00,SystemResetWarning,0825.3,5.00,000.00,029.8,029.0,000.0,038.3,031.5,018.8,0000.0,0010.07,0004.25,0003.46
2024-06-02 11:40:00,SystemResetWarning,0825.2,5.00,000.00,029.8,029.0,000.0,038.3,031.5,018.8,0000.0,0009.74,0004.18,0003.44
2024-06-02 11:41:00,SystemResetWarning,0825.2,5.00,000.00,029.8,029.0,000.0,038.3,031.5,018.8,0000.0,0009.60,0004.14,0003.44
2024-06-02 11:42:00,SystemResetWarning,0825.2,5.01,000.00,029.8,029.0,000.0,038.2,031.5,019.0,0000.0,0009.39,0004.11,0003.43
2024-06-02 11:43:00,SystemResetWarning,0825.2,5.01,000.00,029.8,029.0,000.0,038.2,031.5,019.1,0000.0,0009.10,0004.11,0003.41
2024-06-02 11:44:00,SystemResetWarning,0825.2,5.00,000.00,029.8,029.0,000.0,038.2,031.5,018.9,0000.0,0008.73,0004.08,0003.40
2024-06-02 11:45:00,SystemResetWarning,0825.2,4.99,000.00,029.8,029.0,000.0,038.2,031.5,018.7,0000.0,0008.35,0004.07,0003.40
2024-06-02 11:46:00,SystemResetWarning,0825.2,4.99,000.00,029.8,029.0,000.0,038.2,031.5,018.7,0000.0,0008.89,0004.08,0003.40
2024-06-02 11:47:00,SystemResetWarning,0825.2,5.00,000.00,029.8,029.0,000.0,038.2,031.5,018.6,0000.0,0008.99,0004.12,0003.41
2024-06-02 11:48:00,SystemResetWarning,0825.2,5.01,000.00,029.8,029.0,000.0,038.2,031.5,018.4,0000.0,0008.64,0004.15,0003.41
2024-06-02 11:49:00,SystemResetWarning,0825.2,5.01,000.00,029.8,029.0,000.0,038.2,031.5,018.6,0000.0,0009.27,0004.21,0003.41
2024-06-02 11:50:00,SystemResetWarning,0825.2,4.98,000.00,029.8,029.0,000.0,038.2,031.5,018.7,0000.0,0009.90,0004.22,0003.41
2024-06-02 11:51:00,SystemResetWarning,0825.3,4.99,000.00,029.8,029.0,000.0,038.2,031.5,018.9,0000.0,0010.50,0004.24,0003.41
2024-06-02 11:52:00,SystemResetWarning,0825.2,5.00,000.00,029.8,029.0,000.0,038.2,031.5,018.9,0000.0,0010.96,0004.29,0003.41
2024-06-02 11:53:00,SystemResetWarning,0825.2,5.00,000.00,029.8,029.0,000.0,038.2,031.5,019.0,0000.0,0011.98,0004.29,0003.40
2024-06-02 11:54:00,SystemResetWarning,0825.2,5.00,000.00,029.8,029.0,000.0,038.2,031.5,018.9,0000.0,0012.79,0004.28,0003.40
2024-06-02 11:55:00,SystemResetWarning,0825.2,5.01,000.00,029.8,029.0,000.0,038.2,031.4,018.9,0000.0,0012.80,0004.24,0003.41
2024-06-02 11:56:00,SystemResetWarning,0825.2,5.00,000.00,029.8,028.9,000.0,038.2,031.4,018.6,0000.0,0012.75,0004.23,0003.41
2024-06-02 11:57:00,SystemResetWarning,0825.2,4.99,000.00,029.7,029.0,000.0,038.2,031.5,018.5,0000.0,0012.54,0004.19,0003.39
2024-06-02 11:58:00,SystemResetWarning,0825.2,4.99,000.00,029.7,028.9,000.0,038.2,031.5,018.5,0000.0,0012.63,0004.16,0003.37
2024-06-02 11:59:00,SystemResetWarning,0825.2,4.99,000.00,029.7,028.9,000.0,038.2,031.5,018.2,0000.0,0012.71,0004.08,0003.35
